Theta_e
320 320 320 319 319 320 320 320 320 320 321 322 323 324 326 326 326 328 322 331 337 353 347 336 335 332 333 330 334 335 323 317 319 319 326 334 331 338 342 338 341 341 340 346 351
320 320 319 319 319 319 319 319 319 319 320 321 323 324 326 326 326 322 337 349 349 356 333 330 329 331 330 326 332 329 321 320 326 327 327 331 332 335 335 336 338 339 345 349 350
319 319 319 319 319 319 319 319 319 319 319 320 323 325 326 328 322 320 347 359 356 352 332 330 331 329 325 327 326 326 321 325 327 329 332 330 333 336 331 329 336 337 342 346 347
319 318 318 319 319 319 319 319 318 318 318 320 323 325 326 328 310 326 346 359 355 339 331 331 330 326 324 322 324 321 325 326 329 332 331 329 335 334 332 333 340 342 345 345 344
318 319 319 318 318 318 318 318 317 317 318 320 323 325 326 317 318 329 344 352 337 335 331 329 327 326 322 323 323 321 323 325 330 332 332 333 332 335 334 338 342 343 343 342 343
318 318 318 318 318 318 317 317 316 316 318 322 324 326 320 310 325 328 325 328 335 333 331 331 329 328 324 323 322 323 323 324 329 331 332 330 333 335 337 339 340 341 341 342 342
318 318 317 317 317 317 317 316 315 316 319 322 325 326 314 313 325 327 325 325 328 330 331 333 332 327 327 323 325 323 319 323 326 329 328 331 326 328 340 339 337 338 340 342 344
317 317 317 317 317 316 315 315 315 317 320 323 325 323 310 318 322 322 326 326 328 329 329 331 332 329 325 326 323 319 320 315 323 328 329 329 320 334 341 338 335 337 339 341 344
318 317 317 316 316 315 314 314 317 319 322 324 324 317 309 322 318 325 327 325 327 328 330 330 330 326 325 321 317 317 313 313 316 326 325 325 319 333 340 339 335 337 337 339 342
317 316 316 316 315 314 313 314 317 320 322 324 320 313 314 314 321 324 327 326 325 327 327 327 326 322 321 319 312 312 312 314 314 320 324 322 320 330 337 338 337 336 337 339 340
318 316 317 316 314 313 315 318 314 312 315 309 309 309 315 319 322 322 326 324 325 325 321 325 319 316 318 319 318 316 314 312 315 318 320 321 320 324 334 335 335 337 336 337 339
317 316 316 315 314 312 315 313 311 314 310 314 311 310 313 315 313 321 326 320 319 317 323 320 316 320 319 319 317 316 313 313 316 319 321 319 318 323 327 332 334 335 338 338 340
316 316 315 314 313 313 315 314 319 318 311 311 313 311 311 313 313 318 323 320 317 316 319 317 319 319 318 317 315 316 312 312 313 317 318 316 314 319 326 330 334 336 339 341 342
316 315 314 312 311 318 313 317 321 318 306 308 310 312 313 314 311 321 324 321 317 315 319 319 321 317 317 315 316 313 315 314 312 312 309 315 307 315 322 324 330 334 337 339 342
315 314 312 312 316 314 317 322 320 317 296 308 309 318 315 313 314 315 324 320 314 316 319 317 317 317 315 315 315 313 316 314 313 312 311 312 308 317 321 323 329 334 336 337 342
314 313 312 315 317 319 322 321 316 305 296 304 309 309 309 312 313 315 316 320 318 317 320 319 321 318 318 317 315 317 315 314 314 313 306 311 310 311 319 322 326 333 337 337 339
312 310 311 319 317 322 322 316 304 299 311 304 305 309 309 309 310 312 311 310 309 309 311 316 316 319 318 315 316 316 313 306 305 304 306 313 312 316 322 325 326 330 337 339 342
310 309 313 319 324 320 318 311 299 302 308 310 308 309 307 310 310 311 310 308 313 314 311 309 307 316 320 317 315 315 314 307 299 301 305 315 308 317 326 330 332 336 339 341 342
308 320 319 322 321 321 315 304 302 307 312 310 307 305 306 309 309 309 309 310 313 316 310 309 309 317 316 317 317 313 310 314 308 308 305 311 314 322 326 327 331 336 339 340 343
317 322 322 321 321 318 311 302 307 312 313 312 305 307 304 306 306 308 309 313 312 316 318 314 310 314 313 315 315 315 316 308 309 301 300 307 308 311 321 325 330 334 337 339 342
318 317 318 321 320 314 306 307 309 314 314 309 307 306 307 306 307 307 308 311 314 314 317 316 313 309 315 313 312 312 311 312 311 309 304 302 308 323 323 326 328 335 337 338 342
317 312 319 321 309 310 307 310 305 311 314 312 310 310 307 308 306 307 307 310 315 317 311 316 313 309 312 317 317 316 314 313 308 308 310 309 309 326 326 326 331 336 337 336 341
317 316 318 315 305 306 309 310 311 310 310 309 310 312 312 308 305 308 309 313 314 315 315 316 311 308 310 315 319 316 317 316 314 314 309 306 310 329 329 329 331 336 337 338 340
315 309 311 312 314 310 308 308 307 312 311 312 311 314 312 309 312 309 310 311 314 316 326 318 313 311 306 310 315 312 314 315 313 309 311 310 313 324 327 328 331 334 337 339 339
317 315 313 305 308 310 310 309 307 307 312 314 313 313 312 308 309 309 312 312 313 316 316 316 310 311 312 313 314 314 314 314 313 314 309 312 313 322 327 331 334 336 335 331 331
316 320 320 315 311 310 306 309 308 311 312 312 311 314 315 312 311 309 312 314 313 315 315 317 313 314 311 314 315 313 314 314 315 315 314 315 315 325 332 331 329 329 329 328 326
319 321 319 310 317 310 309 310 311 317 320 318 316 317 316 316 319 318 318 319 319 316 315 314 315 313 309 313 313 309 314 314 315 316 316 311 321 327 326 326 326 327 327 326 325
Wind_Speed
13 13 13 13 13 13 13 12 12 13 13 15 15 16 15 17 21 8 8 4 4 6 5 6 8 3 2 3 2 2 2 10 12 15 11 7 8 6 5 8 10 4 10 21 21
12 13 13 13 13 13 13 13 12 13 13 15 16 17 15 16 10 9 5 6 7 5 9 8 9 9 2 3 1 4 5 10 6 7 8 7 6 8 5 9 10 13 18 21 21
12 12 13 14 13 13 13 13 12 12 12 14 16 17 15 15 8 3 9 7 7 9 10 9 7 5 2 1 3 3 5 5 7 5 5 7 8 4 5 5 9 16 20 20 20
13 13 13 14 14 14 14 13 12 11 12 13 15 17 17 7 3 6 8 5 7 10 9 6 4 6 4 5 3 2 2 4 4 4 5 6 8 9 10 9 13 17 20 19 18
14 14 14 14 14 14 14 14 13 12 12 13 14 15 9 8 4 8 6 6 8 8 9 6 5 6 7 5 1 2 3 2 3 5 7 7 7 10 10 11 17 17 17 17 15
14 14 14 14 14 14 14 14 13 11 12 12 13 17 7 8 4 4 4 2 4 9 7 6 5 8 6 5 5 5 1 3 4 5 6 6 9 5 9 13 17 18 16 15 14
14 14 14 15 15 15 15 14 13 11 12 11 11 7 6 6 2 3 6 4 6 10 8 5 8 7 9 5 4 3 4 4 3 5 3 5 9 4 16 15 16 16 15 15 12
15 15 15 15 15 16 15 14 13 13 11 9 7 7 7 1 4 10 9 9 8 8 8 4 6 10 6 5 4 3 4 4 6 6 4 10 10 12 16 15 15 14 14 14 14
14 14 15 15 15 16 15 16 15 13 8 7 8 7 3 3 9 8 8 8 10 8 7 3 7 7 7 11 9 5 3 1 4 7 3 9 7 12 15 13 14 14 14 13 13
14 14 15 14 15 16 18 14 1 6 6 6 5 7 7 6 2 3 6 7 9 11 9 11 9 10 7 10 3 1 4 1 5 5 7 7 4 10 13 14 13 14 13 12 13
14 16 13 13 15 13 14 6 7 8 8 7 2 4 4 5 4 10 10 11 10 14 16 12 11 11 8 5 6 6 7 6 2 1 5 7 8 7 11 12 13 13 14 13 11
14 15 15 13 13 11 8 6 5 7 7 13 12 9 9 4 7 12 11 14 12 16 19 10 16 7 2 5 5 8 7 3 5 4 6 2 7 1 5 9 11 11 14 13 14
14 14 15 15 14 6 6 4 1 5 7 6 8 8 6 9 8 18 17 15 13 18 17 18 12 5 5 5 8 9 5 5 7 6 3 4 10 8 9 4 5 10 10 14 15
14 14 15 18 7 2 5 3 6 5 7 12 9 8 9 6 9 7 16 13 8 16 21 20 12 5 6 7 7 8 3 4 5 10 4 3 6 6 5 6 6 9 12 14 17
15 14 12 8 8 6 5 4 3 6 7 9 8 5 9 12 13 13 12 11 14 13 14 17 10 14 11 3 4 7 4 0 1 7 8 9 9 12 4 8 9 9 3 9 19
17 15 13 6 5 7 4 4 6 9 5 8 9 13 15 14 8 12 14 12 10 14 17 17 5 5 6 0 4 5 7 5 5 8 12 7 8 8 6 4 7 10 8 7 9
18 17 7 4 1 1 4 6 8 9 5 9 12 16 18 14 12 16 17 19 14 17 17 20 15 9 6 7 5 14 12 9 6 8 2 5 7 11 7 5 6 8 10 10 10
22 12 9 7 2 5 6 9 9 1 5 3 8 16 18 18 14 15 17 18 21 17 15 18 20 19 9 12 10 12 11 8 4 8 5 5 6 8 7 7 8 8 10 11 10
24 5 4 4 9 5 9 11 5 2 2 3 11 18 17 17 9 13 16 16 16 15 14 16 15 11 5 7 12 9 11 8 11 4 7 4 5 11 8 8 8 10 11 10 9
6 4 4 3 10 7 10 13 1 2 5 4 12 16 18 18 13 15 14 16 14 17 13 13 13 9 7 9 4 8 3 7 6 4 9 7 3 5 8 10 9 10 12 12 9
6 6 6 6 7 7 11 13 7 3 2 3 4 11 16 17 17 17 14 13 17 18 9 12 8 10 11 9 12 8 11 6 6 6 8 7 3 11 6 3 11 11 11 10 10
5 5 5 9 8 9 13 12 1 9 3 6 5 11 11 17 17 15 16 17 20 19 17 9 8 11 8 4 2 4 2 7 9 10 3 9 4 8 6 4 6 10 11 9 8
5 3 6 5 8 9 13 11 13 16 12 5 5 9 12 14 15 15 14 15 19 18 15 10 7 10 12 11 6 6 4 5 7 6 6 9 6 8 9 8 6 11 9 9 8
5 6 6 7 8 10 11 12 11 6 11 12 10 8 11 14 14 15 11 6 17 21 4 11 9 9 4 5 9 9 8 4 8 7 2 5 2 12 8 6 8 9 9 10 9
5 0 4 10 13 14 6 1 8 7 9 5 7 16 14 13 16 10 14 14 13 5 9 13 8 5 4 4 2 4 7 4 7 6 8 11 7 8 5 7 8 11 11 11 10
6 5 3 6 7 13 11 11 12 9 7 9 12 10 13 12 13 12 15 15 10 10 13 10 5 7 4 5 9 7 5 3 2 3 8 6 2 5 9 10 11 11 10 9 8
3 3 6 6 8 11 13 13 8 4 9 14 8 9 13 19 12 8 16 16 15 16 13 12 8 9 9 5 6 9 5 2 0 3 6 8 11 9 11 12 10 10 8 9 7
Wind_Direction
349 349 347 343 341 337 333 329 325 322 323 324 326 318 319 322 305 221 264 30 352 152 235 273 230 10 315 41 339 300 82 73 63 62 88 125 94 84 92 122 57 58 125 132 143
348 346 344 341 338 336 330 328 327 325 326 325 323 319 322 326 286 271 25 343 271 206 251 310 339 335 61 66 58 307 41 48 11 53 69 86 65 107 120 121 99 95 101 131 149
349 347 342 338 338 333 329 327 325 323 323 323 320 317 320 314 270 122 24 325 209 207 272 293 298 304 354 16 61 72 35 26 59 18 66 98 103 89 148 120 136 138 139 151 158
350 347 343 338 336 334 328 326 323 321 321 320 318 314 312 259 209 97 14 26 168 214 254 268 270 326 325 29 59 258 343 327 29 105 118 106 115 85 49 66 118 143 149 158 168
349 345 343 340 335 332 328 325 322 320 318 316 316 312 288 224 241 106 311 112 163 199 236 276 302 336 1 357 108 307 6 11 74 141 111 136 93 103 94 108 129 137 153 160 168
349 346 342 339 335 331 327 322 318 314 309 315 315 308 253 236 62 147 360 177 206 220 234 255 322 1 298 315 320 347 318 55 140 142 144 145 134 146 124 137 141 151 156 158 166
347 346 343 340 335 331 325 317 312 305 303 308 309 295 257 248 1 216 292 277 217 241 249 264 303 293 341 236 356 297 221 161 151 162 129 188 165 132 149 153 154 164 164 159 169
345 344 343 339 335 331 322 311 302 293 295 293 294 265 265 158 306 263 257 253 226 239 261 331 267 280 270 298 216 264 237 199 135 177 151 240 108 138 161 163 163 172 167 168 175
343 341 340 338 334 331 319 307 290 276 263 267 244 262 228 140 230 224 222 226 179 198 207 190 230 278 233 239 205 222 77 306 156 201 191 239 100 146 173 179 170 175 172 177 178
347 338 340 334 334 331 318 298 22 217 201 220 262 248 220 163 180 220 186 233 194 179 183 217 224 240 214 237 254 111 297 255 291 119 224 216 241 142 182 191 186 175 170 179 175
334 339 330 332 333 331 314 203 205 183 210 265 51 321 118 331 201 205 178 190 197 199 207 207 233 222 48 21 345 306 290 295 336 221 237 238 261 129 176 204 198 188 174 174 174
340 339 329 335 325 324 272 257 20 1 283 221 244 262 266 300 209 187 190 196 200 203 212 189 229 87 236 282 279 271 282 102 100 151 230 180 257 105 164 203 221 204 174 174 148
336 338 332 330 326 257 266 274 359 298 259 170 211 237 218 205 218 174 199 203 206 215 194 214 195 126 246 240 264 217 268 115 92 151 184 256 237 186 133 177 207 202 191 166 154
332 337 330 323 274 8 228 161 275 253 261 150 197 192 180 228 212 185 211 194 198 213 205 219 132 202 226 263 270 226 119 121 133 250 28 257 312 151 128 123 137 162 182 185 163
332 328 322 329 324 234 60 326 219 220 237 130 144 96 159 202 131 177 191 208 213 216 202 199 195 217 236 267 316 59 125 32 286 275 275 163 264 118 155 123 102 81 97 215 182
327 318 315 202 223 265 264 292 225 226 224 155 145 175 173 199 192 138 181 226 235 221 214 205 140 226 246 166 300 162 154 188 216 271 252 86 281 120 68 65 103 94 89 120 172
322 311 255 250 50 161 237 206 215 249 131 158 177 173 189 177 170 175 185 191 195 201 196 210 184 194 231 240 190 225 217 228 220 205 37 95 249 57 102 79 69 86 112 121 137
322 311 176 245 241 250 213 215 241 76 212 125 181 184 195 174 175 186 186 195 210 210 191 196 199 222 198 246 252 213 284 273 234 249 198 136 236 97 91 95 105 100 122 128 144
312 188 213 197 215 235 222 216 210 195 36 188 178 189 195 183 189 186 195 186 194 224 207 196 213 185 190 222 260 162 229 350 293 212 283 133 139 174 147 122 114 109 125 131 117
303 237 121 120 171 222 227 236 219 306 326 219 200 202 191 187 202 197 188 204 184 207 231 187 178 183 148 185 194 281 41 206 204 190 246 150 274 307 152 147 138 136 132 135 131
242 227 80 161 193 222 221 224 234 272 297 296 219 199 213 189 199 193 188 195 205 192 225 168 239 150 184 205 192 174 209 230 314 308 304 249 160 66 85 120 152 142 137 134 134
288 219 100 179 204 215 224 222 330 256 209 288 271 270 221 183 203 203 202 214 194 195 197 213 229 170 121 103 252 312 329 213 237 167 224 324 11 57 66 145 129 135 146 123 115
288 97 167 258 218 205 224 245 245 265 263 261 259 235 206 196 197 204 197 202 186 190 194 177 218 136 148 160 168 189 156 310 293 314 251 297 69 69 89 97 141 138 136 127 119
269 187 153 217 273 284 205 224 232 212 264 250 262 246 197 203 198 198 214 156 190 196 136 200 193 239 180 124 142 159 178 223 289 295 326 257 109 85 74 101 108 109 126 110 91
215 259 2 190 217 235 266 238 223 248 221 231 223 229 196 196 195 205 183 139 174 154 188 220 182 238 356 61 105 123 167 194 268 347 290 9 338 62 75 107 109 111 117 115 96
302 316 199 295 239 218 215 241 254 246 235 213 235 192 223 226 195 185 184 164 164 178 185 218 117 179 141 166 164 158 152 180 233 277 277 298 218 84 112 115 112 99 107 101 88
19 254 278 152 202 209 226 231 253 221 245 247 263 284 226 221 238 191 189 191 150 171 180 188 155 196 147 148 148 198 160 199 309 260 316 289 79 141 138 126 123 121 121 111 87